Weather History for Lakeville, MN

Change the Weather History Date:

Wednesday, November 6, 2013

  Actual Average Record
Temperature  
Mean Temperature 32 °F -  
Max Temperature 35 °F 45 °F 71 °F (2004)
Min Temperature 28 °F 27 °F 4 °F (1951)
Degree Days  
Heating Degree Days 34    
Moisture  
Dew Point 27 °F    
Average Humidity 85    
Maximum Humidity 100    
Minimum Humidity 65    
Precipitation  
Precipitation 0.00 in - - ()
Sea Level Pressure  
Sea Level Pressure 30.08 in    
Wind  
Wind Speed 10 mph (WNW)    
Max Wind Speed 15 mph    
Max Gust Speed 20 mph    
Visibility 9 miles    
Events Snow    
Averages and records for this station are not official NWS values.
T = Trace of Precipitation, MM = Missing Value Source: NWS Daily Summary

Daily Weather History Graph

Daily Weather History Graph

Search for Another Location

Airport:

Trip Planner

Search our weather history database for the weather conditions in past years. The results will help you decide how hot, cold, wet, or windy it might be!

Date:

Astronomy

Nov. 06, 2013 Rise Set
Actual Time 6:57 AM CST 4:54 PM CST
Civil Twilight 6:26 AM CST 5:25 PM CST
Nautical Twilight 5:52 AM CST 6:00 PM CST
Astronomical Twilight 5:18 AM CST 6:34 PM CST
Moon 10:16 AM CST (11/6) 7:56 PM CST (11/6)
Length of Visible Light 10h 58m
Length of Day
9h 57m
Waxing Crescent, 14% of the Moon is Illuminated
Nov 6
Waxing Crescent
Nov 9
First Quarter
Nov 17
Full
Nov 25
Last Quarter
Dec 2
New

Hourly Weather History & Observations

Time (CST) Temp. Windchill Dew Point Humidity Pressure Visibility Wind Dir Wind Speed Gust Speed Precip Events Conditions
12:10 AM 30.2 °F 21.3 °F 30.2 °F 100% 30.00 in 2.5 mi North 10.4 mph - N/A Snow Light Snow
12:30 AM 30.2 °F 21.3 °F 30.2 °F 100% 30.01 in 5.0 mi North 10.4 mph - N/A   Overcast
12:49 AM 30.2 °F 21.9 °F 30.2 °F 100% 30.00 in 5.0 mi North 9.2 mph - N/A Snow Light Snow
1:10 AM 30.2 °F 20.8 °F 30.2 °F 100% 29.99 in 3.0 mi NNW 11.5 mph 16.1 mph N/A Snow Light Snow
1:29 AM 30.2 °F 21.3 °F 30.2 °F 100% 30.00 in 4.0 mi North 10.4 mph 17.3 mph N/A Snow Light Snow
1:50 AM 32.0 °F 22.5 °F 30.2 °F 93% 30.01 in 7.0 mi North 12.7 mph 18.4 mph N/A Snow Light Snow
2:10 AM 30.2 °F 20.2 °F 30.2 °F 100% 30.00 in 5.0 mi NNW 12.7 mph 16.1 mph N/A Snow Light Snow
2:29 AM 30.2 °F 19.3 °F 30.2 °F 100% 30.00 in 5.0 mi NNW 15.0 mph 19.6 mph N/A Snow Light Snow
2:50 AM 30.2 °F 20.8 °F 30.2 °F 100% 30.00 in 7.0 mi NNW 11.5 mph - N/A Snow Light Snow
3:09 AM 30.2 °F 20.2 °F 30.2 °F 100% 30.00 in 10.0 mi North 12.7 mph - N/A   Overcast
3:30 AM 30.2 °F 21.9 °F 30.2 °F 100% 30.02 in 10.0 mi NNW 9.2 mph 16.1 mph N/A Snow Light Snow
3:50 AM 30.2 °F 20.8 °F 30.2 °F 100% 30.02 in 7.0 mi NNW 11.5 mph 18.4 mph N/A Snow Light Snow
4:09 AM 30.2 °F 20.8 °F 30.2 °F 100% 30.02 in 7.0 mi NNW 11.5 mph 16.1 mph N/A Snow Light Snow
4:30 AM 30.2 °F 21.3 °F 30.2 °F 100% 30.02 in 10.0 mi NNW 10.4 mph 16.1 mph N/A Snow Light Snow
4:49 AM 30.2 °F 23.4 °F 30.2 °F 100% 30.02 in 10.0 mi NNW 6.9 mph - N/A Snow Light Snow
5:10 AM 30.2 °F 20.2 °F 28.4 °F 93% 30.02 in 10.0 mi NNW 12.7 mph - N/A Snow Light Snow
5:29 AM 30.2 °F 21.3 °F 28.4 °F 93% 30.02 in 10.0 mi NNW 10.4 mph 16.1 mph N/A   Overcast
5:50 AM 30.2 °F 22.6 °F 28.4 °F 93% 30.02 in 10.0 mi NNW 8.1 mph - N/A   Scattered Clouds
6:09 AM 30.2 °F 21.3 °F 28.4 °F 93% 30.02 in 10.0 mi NW 10.4 mph - N/A   Mostly Cloudy
6:30 AM 28.4 °F 19.7 °F 28.4 °F 100% 30.02 in 5.0 mi NW 9.2 mph - N/A   Scattered Clouds
6:50 AM 28.4 °F 19.7 °F 28.4 °F 100% 30.02 in 10.0 mi NW 9.2 mph - N/A   Clear
7:10 AM 30.2 °F 21.3 °F 28.4 °F 93% 30.03 in 10.0 mi NW 10.4 mph - N/A   Mostly Cloudy
7:29 AM 30.2 °F 21.9 °F 28.4 °F 93% 30.03 in 10.0 mi NW 9.2 mph - N/A   Overcast
7:50 AM 30.2 °F 22.6 °F 28.4 °F 93% 30.04 in 10.0 mi WNW 8.1 mph 16.1 mph N/A   Mostly Cloudy
8:09 AM 28.4 °F 20.4 °F 28.4 °F 100% 30.05 in 10.0 mi WNW 8.1 mph - N/A   Clear
8:30 AM 30.2 °F 21.9 °F 28.4 °F 93% 30.05 in 10.0 mi WNW 9.2 mph - N/A   Clear
8:49 AM 30.2 °F 20.8 °F 28.4 °F 93% 30.05 in 10.0 mi NW 11.5 mph - N/A   Clear
9:10 AM 30.2 °F 20.2 °F 28.4 °F 93% 30.06 in 10.0 mi WNW 12.7 mph - N/A   Clear
9:29 AM 32.0 °F 22.5 °F 28.4 °F 87% 30.06 in 10.0 mi WNW 12.7 mph - N/A   Clear
9:50 AM 32.0 °F 23.6 °F 28.4 °F 87% 30.07 in 10.0 mi WNW 10.4 mph - N/A   Clear
10:09 AM 33.8 °F 25.3 °F 28.4 °F 81% 30.07 in 10.0 mi WNW 11.5 mph - N/A   Clear
10:29 AM 33.8 °F 26.4 °F 28.4 °F 81% 30.08 in 10.0 mi WNW 9.2 mph - N/A   Clear
10:50 AM 33.8 °F 25.3 °F 26.6 °F 75% 30.08 in 10.0 mi WNW 11.5 mph - N/A   Clear
11:09 AM 35.6 °F 29.2 °F 26.6 °F 70% 30.09 in 10.0 mi West 8.1 mph - N/A   Clear
11:30 AM 35.6 °F 28.0 °F 26.6 °F 70% 30.09 in 10.0 mi West 10.4 mph - N/A   Clear
11:49 AM 35.6 °F 28.6 °F 26.6 °F 70% 30.09 in 10.0 mi West 9.2 mph - N/A   Clear
12:10 PM 35.6 °F 28.0 °F 26.6 °F 70% 30.09 in 10.0 mi West 10.4 mph - N/A   Clear
12:29 PM 35.6 °F 28.0 °F 26.6 °F 70% 30.09 in 10.0 mi West 10.4 mph - N/A   Clear
12:50 PM 35.6 °F 28.0 °F 26.6 °F 70% 30.09 in 10.0 mi West 10.4 mph - N/A   Clear
1:10 PM 35.6 °F 27.5 °F 26.6 °F 70% 30.09 in 10.0 mi WNW 11.5 mph 16.1 mph N/A   Clear
1:29 PM 35.6 °F 28.6 °F 26.6 °F 70% 30.09 in 10.0 mi West 9.2 mph - N/A   Clear
1:50 PM 35.6 °F 27.5 °F 26.6 °F 70% 30.10 in 10.0 mi West 11.5 mph - N/A   Clear
2:09 PM 35.6 °F 28.0 °F 26.6 °F 70% 30.11 in 10.0 mi West 10.4 mph - N/A   Clear
2:30 PM 35.6 °F 27.5 °F 26.6 °F 70% 30.11 in 10.0 mi West 11.5 mph - N/A   Clear
2:49 PM 35.6 °F 27.1 °F 24.8 °F 65% 30.11 in 10.0 mi West 12.7 mph - N/A   Clear
3:09 PM 35.6 °F 28.0 °F 26.6 °F 70% 30.12 in 10.0 mi West 10.4 mph - N/A   Clear
3:30 PM 35.6 °F 27.5 °F 26.6 °F 70% 30.13 in 10.0 mi West 11.5 mph - N/A   Clear
3:49 PM 35.6 °F 29.9 °F 26.6 °F 70% 30.13 in 10.0 mi West 6.9 mph - N/A   Clear
4:10 PM 33.8 °F 28.6 °F 26.6 °F 75% 30.13 in 10.0 mi West 5.8 mph - N/A   Clear
4:29 PM 33.8 °F 28.6 °F 24.8 °F 70% 30.13 in 10.0 mi West 5.8 mph - N/A   Scattered Clouds
4:49 PM 32.0 °F 27.5 °F 24.8 °F 75% 30.13 in 10.0 mi WSW 4.6 mph - N/A   Scattered Clouds
5:10 PM 30.2 °F 25.4 °F 24.8 °F 80% 30.13 in 10.0 mi WSW 4.6 mph - N/A   Scattered Clouds
5:29 PM 30.2 °F 24.3 °F 24.8 °F 80% 30.13 in 10.0 mi WSW 5.8 mph - N/A   Scattered Clouds
5:50 PM 30.2 °F 23.4 °F 24.8 °F 80% 30.13 in 10.0 mi WSW 6.9 mph - N/A   Scattered Clouds
6:09 PM 30.2 °F 22.6 °F 24.8 °F 80% 30.15 in 10.0 mi WSW 8.1 mph - N/A   Scattered Clouds
6:29 PM 30.2 °F 24.3 °F 24.8 °F 80% 30.15 in 10.0 mi WSW 5.8 mph - N/A   Clear
6:50 PM 30.2 °F 24.3 °F 24.8 °F 80% 30.15 in 10.0 mi WSW 5.8 mph - N/A   Clear
7:09 PM 30.2 °F 24.3 °F 24.8 °F 80% 30.15 in 10.0 mi WSW 5.8 mph - N/A   Scattered Clouds
7:30 PM 30.2 °F 26.7 °F 24.8 °F 80% 30.15 in 10.0 mi SW 3.5 mph - N/A   Mostly Cloudy
7:49 PM 30.2 °F 25.4 °F 24.8 °F 80% 30.15 in 10.0 mi WSW 4.6 mph - N/A   Overcast
8:10 PM 30.2 °F 25.4 °F 24.8 °F 80% 30.15 in 10.0 mi WSW 4.6 mph - N/A   Overcast
8:30 PM 30.2 °F 24.3 °F 24.8 °F 80% 30.15 in 10.0 mi WSW 5.8 mph - N/A   Overcast
8:50 PM 30.2 °F 25.4 °F 24.8 °F 80% 30.15 in 10.0 mi WSW 4.6 mph - N/A   Overcast
9:10 PM 30.2 °F 25.4 °F 24.8 °F 80% 30.15 in 10.0 mi WSW 4.6 mph - N/A   Overcast
9:29 PM 30.2 °F 22.6 °F 26.6 °F 86% 30.15 in 10.0 mi WSW 8.1 mph - N/A   Overcast
9:50 PM 30.2 °F 22.6 °F 26.6 °F 86% 30.15 in 10.0 mi WSW 8.1 mph - N/A   Overcast
10:09 PM 30.2 °F 22.6 °F 26.6 °F 86% 30.16 in 10.0 mi West 8.1 mph - N/A   Overcast
10:30 PM 30.2 °F 21.9 °F 24.8 °F 80% 30.16 in 10.0 mi West 9.2 mph - N/A   Overcast
10:50 PM 30.2 °F 21.3 °F 24.8 °F 80% 30.16 in 10.0 mi WSW 10.4 mph - N/A   Scattered Clouds
11:09 PM 28.4 °F 19.7 °F 24.8 °F 86% 30.16 in 10.0 mi West 9.2 mph - N/A   Clear
11:30 PM 28.4 °F 19.7 °F 24.8 °F 86% 30.16 in 10.0 mi WSW 9.2 mph - N/A   Clear
11:49 PM 28.4 °F 20.4 °F 24.8 °F 86% 30.16 in 10.0 mi West 8.1 mph - N/A   Clear